Redmond, OR

11:50 PM PDT on October 21, 2019 (GMT -0700)
Roberts Field Airport

Weather History for KRDM - August, 2019

Change the Weather History Date:

Monday, August 26, 2019

  Actual Average Record
Temperature  
Mean Temperature 60 °F 63 °F  
Max Temperature 84 °F 83 °F 95 °F (1999)
Min Temperature 36 °F 43 °F 32 °F (1993)
Degree Days  
Heating Degree Days 5 4  
Month to date heating degree days 14 60  
Since 1 June heating degree days 196 346  
Since 1 July heating degree days 47 129  
Cooling Degree Days 0 2  
Month to date cooling degree days 113 75  
Year to date cooling degree days 219 201  
Since 1 June cooling degree days 219 196  
Growing Degree Days 10 (Base 50)    
Moisture  
Dew Point 36 °F    
Average Humidity 47    
Maximum Humidity 76    
Minimum Humidity 18    
Precipitation  
Precipitation 0.00 in 0.01 in 0.25 in (1953)
Month to date precipitation T 0.41  
Year to date precipitation 7.46 5.64  
Sea Level Pressure  
Sea Level Pressure 30.11 in    
Wind  
Wind Speed 6 mph (NW)    
Max Wind Speed 16 mph    
Max Gust Speed 20 mph    
Visibility 10 miles    
Events      
T = Trace of Precipitation, MM = Missing Value Source: NWS Daily Summary

Daily Weather History Graph

Daily Weather History Graph

Search for Another Location

Airport or City:

Astronomy

Aug. 26, 2019 Rise Set
Actual Time 6:20 AM PDT 7:51 PM PDT
Civil Twilight 5:50 AM PDT 8:21 PM PDT
Nautical Twilight 5:13 AM PDT 8:58 PM PDT
Astronomical Twilight 4:33 AM PDT 9:37 PM PDT
Moon 1:42 AM PDT (8/26) 5:28 PM PDT (8/26)
Length of Visible Light 14h 31m
Length of Day
13h 30m
Waning Crescent, 18% of the Moon is Illuminated
Aug 26
Waning Crescent
Aug 30
New
Sep 5
First Quarter
Sep 13
Full
Sep 21
Last Quarter

Hourly Weather History & Observations

Time (PDT) Temp. Windchill Dew Point Humidity Pressure Visibility Wind Dir Wind Speed Gust Speed Precip Events Conditions
12:56 AM 46.9 °F - 34.0 °F 61% 30.14 in 10.0 mi South 3.5 mph - N/A   Clear
1:56 AM 45.0 °F - 34.0 °F 65% 30.13 in 10.0 mi Calm Calm - N/A   Clear
2:56 AM 46.9 °F - 35.1 °F 63% 30.12 in 10.0 mi South 4.6 mph - N/A   Clear
3:56 AM 41.0 °F 39.0 °F 33.1 °F 73% 30.13 in 10.0 mi SE 3.5 mph - N/A   Clear
4:56 AM 42.1 °F 40.2 °F 33.1 °F 70% 30.13 in 10.0 mi SE 3.5 mph - N/A   Clear
5:56 AM 37.9 °F - 30.9 °F 76% 30.15 in 10.0 mi Calm Calm - N/A   Clear
6:56 AM 42.1 °F - 34.0 °F 73% 30.16 in 10.0 mi Calm Calm - N/A   Clear
7:56 AM 52.0 °F - 37.0 °F 57% 30.17 in 10.0 mi Calm Calm - N/A   Clear
8:56 AM 60.1 °F - 36.0 °F 41% 30.18 in 10.0 mi Calm Calm - N/A   Clear
9:56 AM 64.9 °F - 35.1 °F 33% 30.17 in 10.0 mi Variable 3.5 mph - N/A   Clear
10:56 AM 69.1 °F - 36.0 °F 30% 30.17 in 10.0 mi NNW 5.8 mph - N/A   Clear
12:56 PM 75.0 °F - 35.1 °F 23% 30.14 in 10.0 mi West 4.6 mph - N/A   Clear
1:56 PM 80.1 °F - 36.0 °F 20% 30.12 in 10.0 mi NE 11.5 mph - N/A   Clear
2:56 PM 80.1 °F - 36.0 °F 20% 30.09 in 10.0 mi Variable 6.9 mph - N/A   Clear
3:56 PM 82.9 °F - 36.0 °F 19% 30.08 in 10.0 mi NW 13.8 mph - N/A   Clear
4:56 PM 82.9 °F - 37.9 °F 20% 30.07 in 10.0 mi NNW 10.4 mph - N/A   Clear
5:56 PM 82.0 °F - 36.0 °F 19% 30.07 in 10.0 mi NNW 15.0 mph 19.6 mph N/A   Clear
6:56 PM 79.0 °F - 36.0 °F 21% 30.07 in 10.0 mi NNW 15.0 mph - N/A   Clear
7:56 PM 75.0 °F - 37.9 °F 26% 30.06 in 10.0 mi NNW 10.4 mph - N/A   Clear
8:56 PM 71.1 °F - 39.0 °F 31% 30.07 in 10.0 mi NW 9.2 mph - N/A   Clear
9:56 PM 68.0 °F - 39.0 °F 35% 30.07 in 10.0 mi NW 8.1 mph - N/A   Clear
10:56 PM 64.9 °F - 39.0 °F 39% 30.07 in 10.0 mi NW 5.8 mph - N/A   Clear
11:56 PM 63.0 °F - 39.0 °F 41% 30.07 in 10.0 mi WNW 8.1 mph - N/A   Clear